Location: Recife
(8.0585°S, 34.8848°W)
Time: 21:53:52
(UTC-03:00)

A-11 Canister half - Pass Details

Date: 19 April 2026
Orbit: 1523 x 1684 km, 47.3° (Epoch: 19 May)

Event Time Altitude Azimuth Distance (km) Brightness Sun altitude
Rises 17:33:03 0° 199° (SSW) 4,696 11.7 -5.1°
Reaches altitude 10° 17:37:15 10° 183° (S) 3,730 11.0 -6.1°
Maximum altitude 17:43:46 20° 138° (SE) 3,021 10.1 -7.7°
Enters shadow 17:50:16 10° 94° (E) 3,780 10.4 -9.3°
